Retour au catalogue

STARLINK-3856

ActifCommunicationsVLEO
NORAD 52459·PAYLOAD·🇺🇸 United States

Lancé May 6, 2022 depuis Cape Canaveral Space Force Station

Loading…

Prochains Passages (prochaines 24 heures)

TLE

FraisSource: CelesTrak SupGP

Époque: Sep 14, 2026, 21:15 UTC

1 52459C 22049J   26257.88590278  .00035677  00000+0  10827-2 0  2575
2 52459  53.1584 280.1535 0001092  90.7713   7.3528 15.33528956    19

Suivez STARLINK-3856 en temps réel avec AllMySat

Download on the App Store